Le nostre stazioni meteo in Italia

Pubblicità
Il mio iltempo24.it
Alghero, Italia (16520): Temperatura & dewpoint: 13.06.2019 01:00:00 - 19.06.2019 01:00:00 (CEST)Alghero, Italia (16520): velocità del vento: 13.06.2019 01:00:00 - 19.06.2019 01:00:00 (CEST)Alghero, Italia (16520): direzione del vento: 13.06.2019 01:00:00 - 19.06.2019 01:00:00 (CEST)Alghero, Italia (16520): reduced air pressure: 13.06.2019 01:00:00 - 19.06.2019 01:00:00 (CEST)Alghero, Italia (16520): visibility: 13.06.2019 01:00:00 - 19.06.2019 01:00:00 (CEST)Alghero, Italia (16520): precipitazioni: 13.06.2019 01:00:00 - 19.06.2019 01:00:00 (CEST)
Data & Tempo tt [°C] td [°C] ff [km/h] ff [kn] dd ppp [hPa] vv [km] rr [mm]
19.06.2019 01:00:00 18,0 16,0 5 3 ENE - 10 -
19.06.2019 00:00:00 19,0 16,0 5 3 ENE - 10 -
18.06.2019 23:00:00 20,0 16,0 9 5 ENE - 10 -
18.06.2019 22:00:00 22,0 16,0 5 3 NE - 10 -
18.06.2019 21:00:00 24,0 14,0 9 5 E - 10 -
18.06.2019 20:00:00 26,4 12,2 16 9 ENE 1014,7 10 -
18.06.2019 19:00:00 28,0 11,0 16 9 ENE - 10 -
18.06.2019 18:00:00 29,0 13,0 21 11 E - 10 -
18.06.2019 17:00:00 29,7 14,5 16 9 NE 1014,8 10 0,0
18.06.2019 16:00:00 29,0 16,0 15 8 N - 10 -
18.06.2019 15:00:00 28,0 19,0 16 9 NO - 10 -
18.06.2019 14:00:00 27,7 18,3 15 8 NNO 1015,5 10 -
18.06.2019 13:00:00 28,0 18,0 13 7 NNO - 10 -
18.06.2019 12:00:00 28,0 12,0 15 8 ENE - 10 -
18.06.2019 11:00:00 26,5 13,5 13 7 ENE 1015,9 10 0,0
18.06.2019 10:00:00 23,0 18,0 5 3 ENE - 10 -
18.06.2019 09:00:00 19,0 18,0 4 2 - - 7 -
18.06.2019 08:00:00 18,1 18,0 8 4 ESE 1015,7 1,5 -
18.06.2019 07:00:00 17,0 17,0 4 2 - - 1,0 -
18.06.2019 06:00:00 16,0 16,0 2 1 - - 3,0 -
18.06.2019 05:00:00 15,7 15,4 5 3 E 1015,4 10 0,0
18.06.2019 04:00:00 15,0 15,0 2 1 - - 10 -
18.06.2019 03:00:00 16,0 15,0 8 4 ENE - 10 -
18.06.2019 02:00:00 16,3 15,5 2 1 - 1015,9 10 -
18.06.2019 01:00:00 17,0 17,0 4 2 E - 10 -
18.06.2019 00:00:00 18,0 18,0 2 1 - - 10 -
17.06.2019 23:00:00 19,0 17,9 5 3 N 1015,3 10 0,0
17.06.2019 22:00:00 20,0 19,0 5 3 NNO - 10 -
17.06.2019 21:00:00 21,0 18,0 8 4 NO - 10 -
17.06.2019 20:00:00 22,7 17,4 5 3 NO 1014,6 10 -
17.06.2019 19:00:00 24,0 17,0 11 6 NNO - 10 -
17.06.2019 18:00:00 24,0 17,0 15 8 NNO - 10 -
17.06.2019 17:00:00 24,6 17,1 15 8 NNO 1014,7 10 0,0
17.06.2019 16:00:00 25,0 17,0 16 9 NO - 10 -
17.06.2019 15:00:00 26,0 16,0 18 10 NNO - 10 -
17.06.2019 14:00:00 26,8 15,5 16 9 NNO 1015,2 10 -
17.06.2019 13:00:00 26,0 16,0 9 5 NNO - 10 -
17.06.2019 12:00:00 25,0 16,0 8 4 - - 10 -
17.06.2019 11:00:00 24,2 15,5 8 4 - 1016,0 10 0,0
17.06.2019 10:00:00 22,0 17,0 4 2 - - 10 -
17.06.2019 09:00:00 20,0 16,0 4 2 - - 10 -
17.06.2019 08:00:00 16,9 15,1 0 0 - 1016,2 45 -
17.06.2019 07:00:00 15,0 14,0 4 2 - - 10 -
17.06.2019 06:00:00 14,0 14,0 4 2 NE - 10 -
17.06.2019 05:00:00 13,5 13,2 2 1 - 1015,8 10 0,0
17.06.2019 04:00:00 15,0 14,0 5 3 NNE - 10 -
17.06.2019 03:00:00 14,0 14,0 4 2 N - 10 -
17.06.2019 02:00:00 14,5 14,3 2 1 - 1016,3 10 -
17.06.2019 01:00:00 16,0 15,0 4 2 - - 10 -
17.06.2019 00:00:00 17,0 16,0 2 1 - - 10 -
16.06.2019 23:00:00 17,5 15,9 4 2 - 1016,6 10 0,0
16.06.2019 22:00:00 19,0 17,0 8 4 N - 10 -
16.06.2019 21:00:00 20,0 17,0 11 6 NNO - 10 -
16.06.2019 20:00:00 21,5 16,7 13 7 NO 1016,2 10 -
16.06.2019 19:00:00 24,0 16,0 15 8 NO - 10 -
16.06.2019 18:00:00 24,0 16,0 13 7 NO - 10 -
16.06.2019 17:00:00 25,0 16,6 18 10 NO 1016,8 10 0,0
16.06.2019 16:00:00 25,0 17,0 15 8 ONO - 10 -
16.06.2019 15:00:00 25,0 17,0 15 8 O - 10 -
16.06.2019 14:00:00 24,9 16,6 15 8 ONO 1017,3 10 -
16.06.2019 13:00:00 25,0 17,0 11 6 ONO - 10 -
16.06.2019 12:00:00 25,0 17,0 9 5 O - 10 -
16.06.2019 11:00:00 23,7 17,0 9 5 O 1018,0 10 0,0
16.06.2019 10:00:00 23,0 18,0 9 5 O - 10 -
16.06.2019 09:00:00 22,0 17,0 8 4 SO - 10 -
16.06.2019 08:00:00 20,6 16,6 5 3 SSO 1017,9 10 -
16.06.2019 07:00:00 18,0 17,0 5 3 SO - 10 -
16.06.2019 06:00:00 17,0 17,0 2 1 - - 10 -
16.06.2019 05:00:00 16,8 16,3 2 1 - 1017,3 10 0,0
16.06.2019 04:00:00 16,0 16,0 2 1 SE - 10 -
16.06.2019 03:00:00 17,0 16,0 2 1 E - 10 -
16.06.2019 02:00:00 17,4 16,8 4 2 - 1018,3 10 -
16.06.2019 01:00:00 18,0 18,0 5 3 O - 10 -
16.06.2019 00:00:00 18,0 18,0 4 2 - - 10 -
15.06.2019 23:00:00 18,8 18,1 5 3 S 1017,9 10 0,0
15.06.2019 22:00:00 20,0 19,0 2 1 - - 10 -
15.06.2019 21:00:00 21,0 19,0 9 5 ONO - 10 -
15.06.2019 20:00:00 22,6 18,8 13 7 ONO 1016,6 10 -
15.06.2019 19:00:00 25,0 19,0 11 6 O - 10 -
15.06.2019 18:00:00 25,0 18,0 11 6 S - 10 -
15.06.2019 17:00:00 24,4 18,2 15 8 SSO 1016,8 10 0,0
15.06.2019 16:00:00 25,0 19,0 13 7 ONO - 10 -
15.06.2019 15:00:00 25,0 18,0 15 8 ONO - 10 -
15.06.2019 14:00:00 24,6 18,6 18 10 ONO 1017,6 10 -
15.06.2019 13:00:00 26,0 19,0 15 8 ONO - 10 -
15.06.2019 12:00:00 26,0 18,0 9 5 S - 10 -
15.06.2019 11:00:00 25,1 18,2 4 2 - 1017,4 10 0,0
15.06.2019 10:00:00 22,0 18,0 5 3 S - 10 -
15.06.2019 09:00:00 22,0 18,0 9 5 S - 10 -
15.06.2019 08:00:00 20,6 19,1 9 5 SSO 1017,2 10 -
15.06.2019 07:00:00 20,0 19,0 5 3 SO - 10 -
15.06.2019 06:00:00 20,0 19,0 11 6 SSO - 10 -
15.06.2019 05:00:00 20,1 18,9 11 6 SO 1017,0 10 0,0
15.06.2019 04:00:00 20,0 19,0 15 8 SSO - 10 -
15.06.2019 03:00:00 20,0 19,0 13 7 SO - 10 -
15.06.2019 02:00:00 20,0 18,8 16 9 SO 1016,9 10 -
15.06.2019 01:00:00 20,0 19,0 18 10 SO - 10 -
15.06.2019 00:00:00 20,0 18,0 24 13 SSO - 10 -
14.06.2019 23:00:00 20,7 18,7 16 9 SO 1016,7 10 0,0
14.06.2019 22:00:00 21,0 19,0 21 11 SSO - 10 -
14.06.2019 21:00:00 21,0 19,0 21 11 SSO - 8 -
14.06.2019 20:00:00 21,6 19,5 21 11 SSO 1014,9 8 -
14.06.2019 19:00:00 23,0 20,0 26 14 SSO - 8 -
14.06.2019 18:00:00 23,0 20,0 29 16 SSO - 8 -
14.06.2019 17:00:00 23,2 20,1 21 11 SSO 1013,7 8 0,0
14.06.2019 16:00:00 25,0 19,0 28 15 SSO - 10 -
14.06.2019 15:00:00 27,0 17,0 24 13 SSO - 10 -
14.06.2019 14:00:00 30,5 13,3 34 18 SO 1011,3 10 -
14.06.2019 13:00:00 32,0 14,0 15 8 SSO - 10 -
14.06.2019 12:00:00 35,0 12,0 21 11 SSO - 10 -
14.06.2019 11:00:00 35,9 10,3 11 6 SSO 1009,0 10 0,0
14.06.2019 10:00:00 36,0 7,0 15 8 SSE - 10 -
14.06.2019 09:00:00 35,0 6,0 13 7 SSE - 10 -
14.06.2019 08:00:00 25,1 16,1 11 6 NNE 1008,9 10 -
14.06.2019 07:00:00 21,0 16,0 9 5 NNE - 10 -
14.06.2019 06:00:00 20,0 16,0 15 8 NNE - 10 -
14.06.2019 05:00:00 20,1 16,4 11 6 NNE 1009,6 10 0,0
14.06.2019 04:00:00 21,0 15,0 18 10 NNE - 10 -
14.06.2019 03:00:00 21,0 14,0 11 6 NNE - 10 -
14.06.2019 02:00:00 21,0 15,2 8 4 N 1011,8 10 -
14.06.2019 01:00:00 21,0 17,0 8 4 NNO - 10 -
14.06.2019 00:00:00 22,0 17,0 13 7 NNE - 10 -
13.06.2019 23:00:00 21,4 17,7 8 4 N 1012,1 10 0,0
13.06.2019 22:00:00 22,0 18,0 11 6 NNE - 10 -
13.06.2019 21:00:00 23,0 17,0 13 7 NNE - 10 -
13.06.2019 20:00:00 24,8 17,8 16 9 NNE 1012,1 10 -
13.06.2019 19:00:00 27,0 18,0 18 10 NNE - 10 -
13.06.2019 18:00:00 28,0 17,0 22 12 NNE - 10 -
13.06.2019 17:00:00 28,7 13,3 26 14 NE 1013,4 10 0,0
13.06.2019 16:00:00 28,0 15,0 24 13 NNE - 10 -
13.06.2019 15:00:00 29,0 16,0 22 12 NNE - 10 -
13.06.2019 14:00:00 28,4 15,1 13 7 NNE 1014,0 10 -
13.06.2019 13:00:00 28,0 15,0 13 7 NE - 10 -
13.06.2019 12:00:00 27,0 14,0 15 8 NNE - 10 -
13.06.2019 11:00:00 25,3 13,2 15 8 NNE 1015,4 10 0,0
13.06.2019 10:00:00 23,0 13,0 15 8 NE - 10 -
13.06.2019 09:00:00 20,0 14,0 16 9 NE - 10 -
13.06.2019 08:00:00 17,0 14,2 5 3 NE 1015,9 10 -
13.06.2019 07:00:00 13,0 13,0 4 2 - - 10 -
13.06.2019 06:00:00 12,0 11,0 2 1 - - 10 -
13.06.2019 05:00:00 12,4 11,4 8 4 NE 1014,7 10 0,0
13.06.2019 04:00:00 13,0 12,0 8 4 NE - 10 -
13.06.2019 03:00:00 14,0 13,0 8 4 NNE - 10 -
13.06.2019 02:00:00 13,2 11,9 8 4 NE 1015,4 10 -
13.06.2019 01:00:00 15,0 13,0 8 4 NNE - 10 -

tt = Temperatura
td = dewpoint
ff = velocità del vento
dd = direzione del vento
ppp = reduced air pressure
vv = visibility
rr = precipitazioni

Stazioni seguenti

WeatherPro
AMSI
MeteoEarth